Location: Feregi
(45.7833°N, 22.6500°E)
Time: 14:23:52
(UTC+00:00)

Daily predictions for brighter satellites

Satellite Brightness Start Highest point End
(mag) Time Altitude Azimuth Time Altitude Azimuth Time Altitude Azimuth
Cosmos 2344 3.5 17:45:53 10° SSW 17:53:19 65° ESE 18:00:59 10° NE
FALCON 9 DEB 3.6 17:51:04 10° WSW 17:54:27 63° NNW 17:57:52 10° NE
Cosmos 2026 Rocket 4.1 17:48:43 10° N 17:54:45 61° ENE 18:00:48 10° SSE
USA 215 4.4 17:49:35 10° ENE 17:55:27 37° NNE 18:01:20 10° NW
Cosmos 1980 4.3 17:50:58 10° NNW 17:56:21 41° NE 18:01:42 10° SE
SL-16 R/B 4.0 17:52:31 10° N 17:56:23 18° NE 18:00:14 10° E
Cosmos 2360 Rocket 4.2 17:51:48 10° NW 17:56:39 30° WSW 18:01:26 10° SSW
SAR-Lupe-1 4.3 17:56:15 10° N 17:59:51 76° WNW 18:03:25 10° SSW
Cosmos 1726 Rocket 4.1 17:55:36 10° SSW 17:59:55 63° W 18:04:15 10° N
Cosmos 1992 Rocket 4.3 17:58:53 10° NNW 18:04:06 72° WSW 18:09:17 10° SSE
COSMOS 2455 4.4 18:01:09 10° SE 18:04:06 14° ESE 18:07:05 10° ENE
Cosmos 2151 4.5 18:00:58 10° NNE 18:04:13 21° ENE 18:07:27 10° ESE
Meteor 2-10 Rocket 4.1 18:00:39 10° SSW 18:05:55 68° WNW 18:11:27 10° N
BREEZE-M DEB (TANK) 2.6 18:02:47 10° SW 18:08:00 39° SSE 18:10:18 10° E
FALCON 9 DEB 3.9 18:08:18 10° SSW 18:10:52 25° SE 18:13:27 10° E
Meteor 2-19 Rocket 4.5 18:04:55 10° N 18:11:08 86° E 18:17:18 10° S
Cosmos 2219 Rocket 2.9 18:05:42 10° NNW 18:11:17 58° WSW 18:16:49 10° S
Cosmos 1455 2.3 18:07:50 10° SSW 18:11:34 78° W 18:15:19 10° N
SL-4 R/B 2.9 18:10:19 10° SSW 18:14:08 32° SE 18:18:14 10° ENE
COSMOS 2428 3.2 18:09:34 10° NNW 18:15:15 64° WSW 18:20:54 10° SSE
CZ-4 R/B 4.3 18:14:43 10° SW 18:17:32 17° W 18:20:23 10° NW
Cosmos 1634 Rocket 4.0 18:11:37 10° S 18:17:52 82° E 18:24:09 10° N
Meteor 2-1 Rocket 4.3 18:12:17 10° S 18:18:07 76° E 18:24:03 10° NNE
Cosmos 2292 Rocket 4.5 18:14:03 10° N 18:20:21 51° ENE 18:25:03 10° SSE
Cosmos 1076 Rocket 3.7 18:16:14 10° N 18:20:29 51° ENE 18:24:40 10° SSE
USA 186 2.6 18:18:23 10° S 18:21:36 51° W 18:24:40 10° NNW
Cosmos 44 4.2 18:18:35 10° SW 18:23:40 60° NW 18:29:01 10° NNE
OBJECT-B 1.0 18:21:58 10° S 18:25:11 74° W 18:28:26 10° NNW
Cosmos 407 Rocket 3.8 18:21:00 10° S 18:25:49 43° ESE 18:30:42 10° NE
ARIANE 5 R/B 4.5 18:26:32 11° E 18:28:46 16° ENE 18:31:25 10° NNE
Meteor 2-3 Rocket 4.4 18:25:59 10° N 18:31:19 37° ENE 18:35:28 15° SE
Cosmos 1356 3.3 18:28:17 10° N 18:31:43 86° E 18:35:08 10° S
NOSS 0 Rocket 4.1 18:28:01 10° NNW 18:34:15 79° WSW 18:40:28 10° SSE
Cosmos 2058 Rocket 4.4 18:32:32 10° SSW 18:36:40 42° WNW 18:40:50 10° N
RESURS DK-1 4.2 18:33:42 10° WSW 18:37:30 35° NW 18:41:20 10° NNE
IRIDIUM 114 4.4 18:34:03 10° SSE 18:39:10 61° E 18:44:20 10° N
Cosmos 1140 Rocket 3.6 18:34:21 10° S 18:39:14 49° ESE 18:44:12 10° NNE
Timation 2 Rocket 4.2 18:34:43 10° S 18:40:59 48° ESE 18:47:01 10° NE
Cosmos 909 Rocket 4.3 18:35:09 10° SW 18:41:28 76° NW 18:47:59 10° NNE
Cosmos 405 Rocket 3.0 18:38:15 10° NNW 18:42:14 71° W 18:46:06 10° S
Cosmos 2180 Rocket 4.5 18:38:09 10° S 18:44:13 65° E 18:50:17 10° NNE
Cosmos 1812 Rocket 3.5 18:39:50 10° S 18:44:14 67° E 18:48:41 10° NNE
Cosmos 2237 Rocket 2.2 18:38:40 10° NNW 18:44:21 84° ENE 18:48:57 16° SSE
Meteor 2-21 4.5 18:38:37 10° N 18:44:38 62° ENE 18:49:56 14° SSE
CZ-2C R/B 4.4 18:43:07 10° NNE 18:47:08 32° E 18:49:27 20° SSE
IRIDIUM 103 4.3 18:43:07 10° S 18:48:18 74° E 18:53:32 10° N
Spot 2 Rocket 4.4 18:51:56 21° ESE 18:54:28 32° ENE 18:58:56 10° N
Cosmos 1825 4.2 18:51:34 10° NNW 18:54:49 28° W 18:58:03 10° SSW
Cosmos 2227 Rocket 2.2 18:53:24 10° S 18:58:57 62° ESE 19:04:33 10° NNE
Cosmos 2082 4.3 18:55:36 16° SSE 18:59:14 33° ESE 19:04:12 10° NE
Cosmos 1655 Rocket 4.0 18:54:45 10° N 19:01:03 73° E 19:05:56 17° SSE
Abrixas rocket 3.1 18:59:48 10° WNW 19:00:44 22° NW 19:00:44 22° NW
Cosmos 1809 Rocket 4.5 18:56:01 10° N 19:02:09 84° W 19:08:02 11° S
Cosmos 2297 Rocket 2.1 18:59:57 10° SSW 19:05:36 87° ESE 19:11:19 10° NNE
IRIDIUM 106 4.4 19:01:22 10° S 19:06:35 78° W 19:11:50 10° N
Okean 3 Rocket 4.3 19:02:36 10° N 19:06:50 37° ENE 19:08:15 30° ESE
Cosmos 1633 2.5 19:03:46 10° N 19:07:22 80° W 19:09:14 26° S
FALCON 9 DEB 2.6 19:04:48 10° SW 19:07:51 83° SSE 19:09:23 27° ENE
Lacrosse 5 rocket 3.7 19:07:09 10° NW 19:10:15 19° N 19:13:27 10° NE
Resurs 01 Rocket 1.7 19:08:37 21° S 19:11:36 79° WSW 19:16:06 10° NNW
FALCON 9 DEB 2.9 19:09:33 10° WSW 19:12:34 76° NNW 19:14:19 23° NE
Cosmos 1869 3.8 19:12:29 36° ESE 19:13:00 38° E 19:16:41 10° NNE
Cosmos 2219 3.2 19:09:08 10° SSW 19:14:45 88° WNW 19:20:25 10° NNE
Meteor 1-4 Rocket 3.2 19:16:24 34° ENE 19:16:24 34° ENE 19:19:16 10° NNE
Genesis I 3.3 19:12:12 10° NW 19:16:13 73° SW 19:17:40 38° SSE
Meteor 2-14 Rocket 4.5 19:10:12 10° N 19:16:17 79° W 19:21:14 16° S
BREEZE-M DEB (TANK) 4.4 19:13:35 10° W 19:18:15 68° N 19:37:01 10° E
Cosmos 1763 Rocket 4.2 19:17:58 10° N 19:22:41 37° ENE 19:24:15 30° E
Cosmos 1190 Rocket 4.0 19:18:10 10° SSW 19:23:24 81° WNW 19:28:39 10° NNE
Cosmos 2084 Rocket 3.4 19:19:29 10° SW 19:23:26 77° NW 19:27:30 10° NE
Ariane Rocket 4.4 19:19:17 10° SSW 19:23:53 35° W 19:28:31 10° NNW
FALCON 9 DEB 3.4 19:21:40 10° WSW 19:24:40 57° NNW 19:26:05 27° NE
Terra 3.0 19:24:59 25° E 19:25:57 27° ENE 19:29:56 10° N
ATLAS 3B R/B 4.4 19:26:58 10° WNW 19:32:42 27° WSW 19:38:36 10° SSW
SPOT 5 3.3 19:34:55 39° E 19:35:48 44° ENE 19:40:23 10° N
SPOT 1/Viking Rocket 3.5 19:33:39 34° SSE 19:36:01 89° WSW 19:41:17 10° NNW
USA 215 3.4 19:34:16 28° ESE 19:37:52 69° NNE 19:44:24 10° NW
Cosmos-2242 3.6 19:35:48 16° SSW 19:39:09 57° WNW 19:43:25 10° N
SL-16 R/B 2.1 19:35:40 10° NNW 19:41:23 86° ENE 19:43:25 42° SSE
Cosmos 2151 4.2 19:37:39 10° NNW 19:41:40 38° W 19:44:09 20° SSW
Cosmos 676 Rocket 3.9 19:37:14 14° SSW 19:41:48 89° ESE 19:47:01 10° NNE
Cosmos 1842 Rocket 4.4 19:43:18 34° ENE 19:43:18 34° ENE 19:46:53 10° NNE
SPOT 3 Rocket 4.4 19:40:39 19° SSW 19:44:03 46° W 19:49:02 10° NNW
FALCON 9 DEB 3.8 19:43:32 10° W 19:46:31 47° NNW 19:46:41 46° NNW
COSMOS 2455 2.7 19:43:05 10° SSW 19:49:05 82° ESE 19:55:09 10° NE
SL-4 R/B 2.5 19:49:10 10° WSW 19:53:36 69° NNW 19:57:55 12° ENE
ERS-1 Rocket 2.9 19:53:53 55° SE 19:54:52 70° ENE 19:59:53 10° N
BREEZE M DEB (TANK) 4.0 19:52:16 10° SW 19:56:14 76° SSE 20:10:07 10° ENE
Cosmos 1408 Rocket 3.5 19:53:26 10° N 19:57:45 64° E 19:57:46 64° E
Meteor 2-15 Rocket 4.4 19:59:54 48° SE 20:01:19 62° E 20:07:17 10° NNE
Timation 1 Rocket 4.4 19:58:05 10° SSW 20:04:03 78° WNW 20:10:04 10° NNE
Cosmos 2221 2.8 20:05:05 52° NE 20:05:05 52° NE 20:08:39 10° NNE
ARIANE 5 R/B 2.9 20:04:04 54° SW 20:04:45 62° WSW 20:09:07 10° NNW
USA 245 4.1 20:05:50 37° W 20:05:50 37° W 20:08:42 10° NNW
Cosmos 1862 3.7 20:02:30 10° N 20:05:51 54° NE 20:05:51 54° NE
Cosmos 1943 4.0 20:01:57 10° NNW 20:07:12 38° NE 20:08:18 35° E
Cosmos 1743 Rocket 4.1 20:12:16 10° N 20:15:53 48° NE 20:15:53 48° NE
TSX-5 4.2 20:18:59 57° WSW 20:19:48 72° WNW 20:23:48 10° NNE
Cosmos 44 Rocket 3.8 20:14:49 10° SW 20:19:51 63° NW 20:25:03 10° NNE
S3M 4.3 20:20:45 46° E 20:21:09 47° E 20:27:13 10° NNE
Nadezhda 2 Rocket 4.5 20:15:02 10° N 20:21:18 80° W 20:22:56 52° S
Cosmos 1741 Rocket 3.8 20:24:56 79° SE 20:25:06 80° ESE 20:30:25 10° NNE
CRYOSAT 2 4.2 20:26:30 88° S 20:26:34 90° ENE 20:31:30 10° N
Cosmos 1850 Rocket 3.8 20:27:53 81° S 20:28:09 88° ESE 20:33:26 10° NNE
Cosmos 2263 Rocket 2.4 20:34:38 55° ENE 20:34:38 55° ENE 20:39:22 10° NNE
Cosmos 1500 Rocket 3.9 20:30:09 10° N 20:33:58 64° N 20:33:58 64° N
Aureole 1 Rocket 3.4 20:35:06 81° E 20:35:06 81° E 20:39:38 10° NNE
SL-08 R/B 4.4 20:30:40 10° N 20:36:53 89° W 20:37:50 67° S
BREEZE M DEB (TANK) 3.7 20:33:08 10° W 20:36:34 33° NW 20:36:34 33° NW
Cosmos 1386 Rocket 4.4 20:31:28 10° N 20:37:29 64° E 20:37:51 63° E
USA 229 DEB 3.9 20:30:16 10° NW 20:37:36 76° NE 20:39:35 53° ESE
USA 229 3.9 20:30:22 10° NW 20:37:41 75° NE 20:39:42 52° ESE
Cosmos 2227 Rocket 4.3 20:38:47 10° WSW 20:43:27 25° NW 20:48:07 10° N
H-2A R/B 4.2 20:41:07 10° N 20:44:42 53° NW 20:44:42 53° NW
Cosmos 1553 Rocket 3.9 20:48:26 63° SW 20:49:23 78° W 20:55:32 10° N
Lacrosse 5 rocket 2.6 20:46:12 10° NW 20:49:59 40° NNE 20:49:59 40° NNE
Cosmos 2208 Rocket 4.2 20:47:13 10° NNW 20:52:16 62° NE 20:52:16 62° NE
NOSS 3-1 (A) 4.0 20:48:04 10° NW 20:55:37 86° NE 20:57:36 58° SE
Cosmos 1603 3.6 20:50:20 10° NNW 20:55:59 87° N 20:55:59 87° N
Cosmos 841 Rocket 3.6 20:51:29 10° NNW 20:56:15 69° WNW 20:56:15 69° WNW
ALOS 2 4.5 20:58:14 22° NE 20:58:14 22° NE 21:00:46 10° NNE
Terra 2.9 21:03:52 38° W 21:03:52 38° W 21:08:00 10° NNW
Meteor 2-17 Rocket 4.4 21:05:29 10° N 21:11:32 70° ENE 21:11:32 70° ENE
Cosmos 540 Rocket 4.2 21:07:26 10° NNW 21:11:41 44° W 21:11:41 44° W
Cosmos 1814 Rocket 4.3 21:07:10 10° NNW 21:11:45 65° NW 21:11:45 65° NW
Cosmos 921 Rocket 4.3 21:09:25 10° NNW 21:12:21 38° NW 21:12:21 38° NW
NOSS 3-1 (C) 4.4 21:11:54 10° NW 21:19:17 52° WSW 21:20:23 49° SW
USA 215 3.9 21:21:36 41° WSW 21:21:36 41° WSW 21:27:16 10° WNW
SL-16 R/B 4.3 21:21:38 10° WNW 21:24:41 15° W 21:25:19 15° WSW
Cosmos 2315 Rocket 4.0 21:31:12 79° NE 21:31:12 79° NE 21:37:19 10° N
SL-4 R/B 3.6 21:29:27 10° WNW 21:33:32 40° NNW 21:33:32 40° NNW
Meteor 1-25 Rocket 4.5 21:31:33 10° NNW 21:36:42 66° NW 21:36:42 66° NW
ATLAS 5 CENTAUR R/B 4.2 21:37:37 10° NNW 21:41:41 22° NNE 21:45:39 12° ENE
Cosmos 1943 4.3 21:46:06 10° NW 21:50:06 34° W 21:50:06 34° W
SeaSat 1 3.2 21:47:27 10° NNE 21:51:19 50° N 21:51:19 50° N
Cosmos 2074 Rocket 4.2 21:50:40 10° N 21:56:30 60° ENE 21:56:30 60° ENE
Iridium 4 Rocket 4.2 21:58:16 52° N 21:58:16 52° N 22:02:23 10° N
USA 281 4.2 21:56:17 33° E 21:57:58 38° NE 22:03:55 10° NNW
Cosmos 1709 Rocket 4.4 21:52:30 10° NNW 21:58:09 52° W 21:58:09 52° W
Cosmos 2263 Rocket 4.0 22:16:15 21° W 22:18:13 25° NW 22:22:47 10° N
Nadezhda 1 Rocket 4.4 22:20:14 56° ENE 22:20:14 56° ENE 22:25:55 10° NNE
Cosmos 968 Rocket 4.4 22:22:53 47° NNW 22:22:53 47° NNW 22:27:07 10° NNE
Meteor 1-11 Rocket 4.3 22:18:27 10° N 22:23:46 54° NE 22:23:46 54° NE
Lacrosse 5 rocket 4.3 22:25:21 10° WNW 22:25:35 11° WNW 22:25:35 11° WNW
Cosmos 1844 Rocket 3.2 22:30:56 57° N 22:30:56 57° N 22:35:25 10° NNE
Thor Agena Rocket 4.3 22:28:34 10° NNE 22:32:22 51° N 22:32:22 51° N
CZ-4C R/B 4.1 22:36:39 10° NNW 22:43:00 37° NE 22:50:21 10° ESE
CZ-2D R/B 4.2 22:48:38 10° NE 22:52:02 17° E 22:52:02 17° E
Cosmos 2082 Rocket 4.0 22:48:53 10° N 22:53:30 25° NE 22:56:13 18° E
SL-16 R/B 4.2 22:51:23 20° E 22:54:06 27° ENE 22:59:14 10° N
Cosmos 1833 Rocket 3.5 22:50:18 10° NNW 22:55:43 44° NE 22:56:05 43° ENE
Cosmos 2154 Rocket 4.2 22:58:28 10° NNW 23:04:10 62° WNW 23:04:10 62° WNW
SJ 16-02 3.0 23:17:22 30° NE 23:17:22 30° NE 23:19:51 10° NNE
Cosmos 2278 Rocket 2.9 23:19:29 46° E 23:19:29 46° E 23:24:04 10° NE
ATLAS 5 CENTAUR R/B 2.4 23:21:32 10° NW 23:27:06 76° NE 23:27:06 76° NE
Cosmos 2341 Rocket 4.0 23:24:52 10° N 23:31:01 77° WNW 23:31:01 77° WNW
Cosmos 2181 Rocket 3.9 23:31:53 76° ESE 23:31:58 76° E 23:38:12 10° NNE
SL-8 Rocket 3.9 23:27:16 10° N 23:33:37 87° E 23:33:40 87° ESE
USA 281 3.6 23:43:08 48° W 23:43:08 48° W 23:48:41 10° NW
COSMOS 2406 3.4 23:40:07 10° NNW 23:44:55 64° NW 23:44:55 64° NW
Cosmos 158 Rocket 4.4 23:41:16 10° NNW 23:45:07 54° N 23:45:07 54° N
Helios 1B rocket 3.9 23:44:55 10° NNE 23:47:40 34° NE 23:47:40 34° NE
UNK 4.4 23:52:44 52° ENE 23:52:44 52° ENE 23:56:59 10° N
